Tracking 19146 objects as of 24-Apr-2018
HD Live streaming from Space Station
objects crossing your sky now

FENGYUN 1C DEB

Track FENGYUN 1C DEB now!
10-day predictions


NORAD ID: 33701
Int'l Code: 1999-025DGN
Perigee: 820.5 km
Apogee: 1,040.3 km
Inclination: 98.7 °
Period: 103.5 minutes
Semi major axis: 7301 km
RCS: 0.007 m2 (small)
Launch date: May 10, 1999
Source: People's Republic of China (PRC)
Launch site: Taiyaun Space Center, China (TSC)

Note: This is SATELLITE DEBRIS
aabbcc
Your satellite tracking list
Your tracking list is empty




NASA's NSSDC Master Catalog

Two Line Element Set (TLE):
1 33701U 99025DGN 18112.27266716  .00000461  00000-0  36139-3 0  9995
2 33701  98.6707 211.3303 0150519 358.5302  74.4133 13.91546056517323
Source of the keplerian elements: AFSPC